Regional Weather Roundup
Issued by NWS

Home | Current Version | Previous Version | Text Only | Print | Product List | Glossary Off
Versions: 1 2 3 4 5 6 7 8 9 10 11 12 13 14 15 16 17 18 19 20 21 22 23 24 25 26 27 28 29 30 31 32 33 34 35 36 37 38 39 40 41 42 43 44 45 46 47 48 49 50

000
ASUS43 KLSX 280407
RWRMO

WEATHER SUMMARY FOR MISSOURI
NATIONAL WEATHER SERVICE SPRINGFIELD MO
1100 PM CDT SUN JUL 27 2014

NOTE: "FAIR" INDICATES FEW OR NO CLOUDS BELOW 12,000 FEET WITH NO
       SIGNIFICANT WEATHER AND/OR OBSTRUCTIONS TO VISIBILITY.
       CURRENT SKY AND/OR WEATHER CONDITIONS ARE NOT AVAILABLE FOR
       CHILLICOTHE AND FARMINGTON.

MOZ001>031-035>038-043-044-053-054-280500-
...NORTHERN AND WESTERN MISSOURI...

CITY           SKY/WX    TMP DP  RH WIND       PRES   REMARKS
KANSAS CTY INT CLEAR     68  59  73 N9        30.13R
KANSAS C DTWN  CLEAR     75  58  55 N9        30.11R
LEE`S SUMMIT   CLEAR     73  58  59 N9        30.12R
ST JOSEPH      CLEAR     66  60  81 N7        30.14R
CHILLICOTHE      N/A     69  56  62 VRB3      30.11R
KIRKSVILLE     CLEAR     67  57  70 NW7       30.08R

$$
MOZ066>068-077>081-088>096-101>105-280500-
...SOUTHWEST MISSOURI...

CITY           SKY/WX    TMP DP  RH WIND       PRES   REMARKS
SPRINGFIELD    CLEAR     72  57  59 N9        30.08R
JOPLIN         CLEAR     69  62  78 CALM      30.10R

$$
MOZ032>034-039>042-045>050-055>058-069>072-280500-
...CENTRAL MISSOURI...

CITY           SKY/WX    TMP DP  RH WIND       PRES   REMARKS
COLUMBIA       CLEAR     72  57  59 N13       30.05S
JEFFERSON CITY CLEAR     75  58  55 N7        30.04R
ROLLA          CLEAR     73  57  57 N14       30.03R
SEDALIA        CLEAR     68  60  75 N7        30.08R
WHITEMAN AFB   CLEAR     71  49  45 N12       30.08R
OSAGE BEACH      N/A     75  57  53 N6        30.06R

$$
MOZ051-052-059>065-280500-
...EAST CENTRAL MISSOURI...

CITY           SKY/WX    TMP DP  RH WIND       PRES   REMARKS
ST LOUIS INTL  CLEAR     74  59  59 NW8       29.99S
SPIRIT OF STL  CLEAR     72  59  63 NW7       29.99S
ST CHARLES     CLEAR     73  58  59 N14G20    29.98S

$$
MOZ072>076-082>087-097>100-106>115-280500-
...SOUTH CENTRAL AND SOUTHEAST MISSOURI...

CITY           SKY/WX    TMP DP  RH WIND       PRES   REMARKS
CAPE GIRARDEAU CLEAR     73  63  70 CALM      29.93R
FARMINGTON     CLEAR     75  55  50 N10       30.01R
POPLAR BLUFF   CLEAR     77  61  57 NW6       29.95R
WEST PLAINS    CLEAR     75  58  55 NW6       30.05R

$$



USA.gov is the U.S. government's official web portal to all federal, state and local government web resources and services.